Antigo, WI

4:55 PM CST on January 17, 2018 (GMT -0600)
Langlade County

Weather History for KAIG - May, 2013

Change the Weather History Date:

Saturday, May 11, 2013

  Actual Average Record
Temperature  
Mean Temperature 38 °F -  
Max Temperature 45 °F 66 °F 81 °F (1979)
Min Temperature 32 °F 38 °F 28 °F (1963)
Degree Days  
Heating Degree Days 26    
Moisture  
Dew Point 33 °F    
Average Humidity 80    
Maximum Humidity 99    
Minimum Humidity 48    
Precipitation  
Precipitation 0.05 in - - ()
Sea Level Pressure  
Sea Level Pressure 29.88 in    
Wind  
Wind Speed 12 mph (NW)    
Max Wind Speed 25 mph    
Max Gust Speed 34 mph    
Visibility 9 miles    
Events Rain , Snow    
Averages and records for this station are not official NWS values.
T = Trace of Precipitation, MM = Missing Value Source: NWS Daily Summary

Daily Weather History Graph

Daily Weather History Graph

Search for Another Location

Airport or City:

Trip Planner

Search our weather history database for the weather conditions in past years. The results will help you decide how hot, cold, wet, or windy it might be!

Date:

Astronomy

May. 11, 2013 Rise Set
Actual Time 5:31 AM CDT 8:14 PM CDT
Civil Twilight 4:57 AM CDT 8:48 PM CDT
Nautical Twilight 4:14 AM CDT 9:31 PM CDT
Astronomical Twilight 3:25 AM CDT 10:21 PM CDT
Moon 6:37 AM CDT (5/11) 9:56 PM CDT (5/11)
Length of Visible Light 15h 51m
Length of Day
14h 43m
Waxing Crescent, 3% of the Moon is Illuminated
May 11
Waxing Crescent
May 17
First Quarter
May 24
Full
May 31
Last Quarter
Jun 8
New

Hourly Weather History & Observations

Time (CDT) Temp. Windchill Dew Point Humidity Pressure Visibility Wind Dir Wind Speed Gust Speed Precip Events Conditions
12:15 AM 41.9 °F 36.3 °F 39.6 °F 91% 29.90 in 10.0 mi SE 9.2 mph - N/A   Overcast
12:35 AM 41.7 °F 35.6 °F 39.4 °F 91% 29.88 in 10.0 mi SE 10.4 mph - N/A   Overcast
12:55 AM 41.9 °F 36.3 °F 39.9 °F 93% 29.88 in 10.0 mi SSE 9.2 mph - N/A   Overcast
1:15 AM 41.9 °F 36.9 °F 40.5 °F 95% 29.87 in 10.0 mi South 8.1 mph - N/A   Overcast
1:35 AM 42.1 °F 37.1 °F 41.0 °F 96% 29.86 in 7.0 mi South 8.1 mph - N/A   Overcast
1:55 AM 41.9 °F 36.9 °F 41.0 °F 97% 29.85 in 7.0 mi South 8.1 mph - N/A   Overcast
2:15 AM 41.9 °F 37.5 °F 41.2 °F 97% 29.84 in 7.0 mi South 6.9 mph - N/A   Overcast
2:35 AM 41.9 °F 37.5 °F 41.4 °F 98% 29.83 in 5.0 mi South 6.9 mph - N/A   Overcast
2:55 AM 42.1 °F 39.2 °F 41.7 °F 99% 29.83 in 4.0 mi South 4.6 mph - N/A   Overcast
3:15 AM 42.3 °F 39.4 °F 41.9 °F 99% 29.82 in 4.0 mi SSW 4.6 mph - N/A   Overcast
3:35 AM 42.8 °F 40.1 °F 42.3 °F 98% 29.81 in 5.0 mi SSW 4.6 mph - N/A   Overcast
3:55 AM 42.8 °F 40.1 °F 42.4 °F 99% 29.81 in 5.0 mi WSW 4.6 mph - N/A   Overcast
4:15 AM 43.7 °F 39.7 °F 42.4 °F 95% 29.82 in 10.0 mi WNW 6.9 mph - N/A   Light Drizzle
4:35 AM 45.7 °F 39.5 °F 39.6 °F 79% 29.81 in 7.0 mi WNW 13.8 mph 21.9 mph N/A Rain Light Rain
4:55 AM 44.2 °F - 40.6 °F 87% 29.80 in 10.0 mi Calm Calm - 0.01 in Rain Light Rain
5:15 AM 43.7 °F 42.1 °F 40.8 °F 90% 29.79 in 10.0 mi WSW 3.5 mph - N/A   Overcast
5:35 AM 43.0 °F 41.3 °F 41.4 °F 94% 29.79 in 10.0 mi SSW 3.5 mph - N/A   Overcast
5:55 AM 43.3 °F 39.9 °F 41.9 °F 95% 29.78 in 10.0 mi SSW 5.8 mph - N/A   Light Drizzle
6:15 AM 43.7 °F 42.1 °F 41.4 °F 91% 29.78 in 10.0 mi SW 3.5 mph - N/A   Light Drizzle
6:35 AM 43.7 °F 40.3 °F 41.2 °F 91% 29.77 in 10.0 mi WSW 5.8 mph - N/A Rain Light Rain
6:55 AM 43.2 °F 36.2 °F 40.1 °F 89% 29.78 in 10.0 mi NW 13.8 mph 20.7 mph N/A   Light Drizzle
7:15 AM 39.6 °F 30.3 °F 36.1 °F 88% 29.80 in 10.0 mi NNW 18.4 mph 24.2 mph N/A Rain Light Rain
7:35 AM 36.7 °F 27.6 °F 34.2 °F 91% 29.81 in 10.0 mi NNW 15.0 mph 24.2 mph 0.01 in Rain Light Rain
7:55 AM 35.6 °F 24.5 °F 33.4 °F 92% 29.83 in 7.0 mi NNW 20.7 mph 25.3 mph 0.01 in Rain Light Rain
8:15 AM 35.1 °F 26.4 °F 34.0 °F 96% 29.84 in 7.0 mi NNW 12.7 mph 17.3 mph N/A Rain Light Rain
8:35 AM 35.8 °F 26.9 °F 34.3 °F 94% 29.83 in 10.0 mi NW 13.8 mph 17.3 mph N/A   Overcast
8:55 AM 36.5 °F 25.7 °F 34.9 °F 94% 29.83 in 10.0 mi NW 20.7 mph 24.2 mph N/A   Overcast
9:15 AM 36.9 °F 27.1 °F 34.0 °F 89% 29.83 in 10.0 mi NW 17.3 mph 27.6 mph N/A   Overcast
9:35 AM 38.3 °F 29.3 °F 34.7 °F 87% 29.84 in 10.0 mi NW 16.1 mph 24.2 mph N/A   Overcast
9:55 AM 38.3 °F 29.3 °F 34.3 °F 86% 29.84 in 10.0 mi NNW 16.1 mph 29.9 mph N/A   Overcast
10:15 AM 39.9 °F 30.5 °F 34.0 °F 79% 29.83 in 10.0 mi NNW 19.6 mph - N/A   Overcast
10:35 AM 39.6 °F 31.0 °F 34.7 °F 83% 29.84 in 7.0 mi NNW 16.1 mph 24.2 mph N/A Rain Light Rain
10:55 AM 36.9 °F 26.5 °F 33.8 °F 89% 29.85 in 4.0 mi NNW 19.6 mph 31.1 mph 0.01 in Snow Light Snow
11:15 AM 41.2 °F 32.1 °F 34.9 °F 78% 29.85 in 10.0 mi NNW 19.6 mph 28.8 mph N/A   Mostly Cloudy
11:35 AM 41.5 °F 31.4 °F 30.4 °F 65% 29.86 in 10.0 mi North 25.3 mph 31.1 mph N/A   Mostly Cloudy
11:55 AM 42.6 °F 34.9 °F 27.7 °F 56% 29.86 in 10.0 mi NW 16.1 mph 32.2 mph N/A   Mostly Cloudy
12:15 PM 42.3 °F 33.8 °F 27.0 °F 55% 29.87 in 10.0 mi NNW 18.4 mph 28.8 mph N/A   Overcast
12:35 PM 43.3 °F 35.0 °F 25.9 °F 50% 29.86 in 10.0 mi NNW 19.6 mph 26.5 mph N/A   Overcast
12:55 PM 43.9 °F 35.4 °F 26.1 °F 50% 29.86 in 10.0 mi NNW 20.7 mph 26.5 mph N/A   Overcast
1:15 PM 42.8 °F 34.3 °F 25.2 °F 50% 29.86 in 10.0 mi NW 19.6 mph 26.5 mph N/A   Overcast
1:35 PM 41.9 °F 33.4 °F 26.2 °F 54% 29.88 in 10.0 mi NNW 18.4 mph 26.5 mph N/A   Overcast
1:55 PM 42.1 °F 32.8 °F 26.6 °F 54% 29.88 in 10.0 mi NW 21.9 mph 29.9 mph N/A   Overcast
2:15 PM 42.3 °F 34.1 °F 25.7 °F 52% 29.89 in 10.0 mi NNW 17.3 mph 26.5 mph N/A   Overcast
2:35 PM 42.3 °F 32.6 °F 24.8 °F 50% 29.90 in 10.0 mi NW 24.2 mph 32.2 mph N/A   Overcast
2:55 PM 42.1 °F 34.2 °F 24.1 °F 49% 29.90 in 10.0 mi NW 16.1 mph 29.9 mph N/A   Overcast
3:15 PM 41.2 °F 32.4 °F 24.6 °F 52% 29.91 in 10.0 mi NW 18.4 mph 25.3 mph N/A   Overcast
3:35 PM 41.0 °F 32.8 °F 24.1 °F 51% 29.91 in 10.0 mi NW 16.1 mph 28.8 mph N/A   Overcast
4:15 PM 41.7 °F 34.1 °F 24.3 °F 50% 29.91 in 10.0 mi NNW 15.0 mph - N/A   Overcast
4:35 PM 43.0 °F 34.5 °F 24.3 °F 48% 29.91 in 10.0 mi WNW 19.6 mph 24.2 mph N/A   Overcast
4:55 PM 42.1 °F 36.6 °F 26.1 °F 53% 29.90 in 7.0 mi NW 9.2 mph - N/A   Mostly Cloudy
5:15 PM 39.0 °F 31.0 °F 27.7 °F 64% 29.92 in 7.0 mi NW 13.8 mph 31.1 mph N/A   Unknown
5:35 PM 38.1 °F 29.1 °F 30.2 °F 73% 29.94 in 7.0 mi NW 16.1 mph 34.5 mph N/A   Overcast
5:55 PM 38.1 °F 28.1 °F 29.3 °F 71% 29.93 in 10.0 mi WNW 19.6 mph 29.9 mph N/A   Mostly Cloudy
6:15 PM 38.3 °F 28.4 °F 29.8 °F 72% 29.94 in 10.0 mi WNW 19.6 mph 26.5 mph N/A   Mostly Cloudy
6:35 PM 34.3 °F 23.2 °F 31.8 °F 90% 29.94 in 5.0 mi NW 19.6 mph 25.3 mph N/A   Overcast
6:55 PM 35.6 °F 26.2 °F 32.9 °F 90% 29.93 in 10.0 mi WNW 15.0 mph - N/A   Mostly Cloudy
7:15 PM 35.6 °F 27.1 °F 32.2 °F 87% 29.94 in 10.0 mi WNW 12.7 mph 18.4 mph N/A   Mostly Cloudy
7:35 PM 32.9 °F 22.4 °F 32.0 °F 96% 29.95 in 1.0 mi NNW 16.1 mph 25.3 mph 0.02 in Snow Light Snow
7:55 PM 33.8 °F 22.8 °F 30.9 °F 89% 29.95 in 10.0 mi NW 18.4 mph 25.3 mph 0.02 in   Mostly Cloudy
8:15 PM 33.1 °F 23.4 °F 31.3 °F 93% 29.95 in 10.0 mi NW 13.8 mph 23.0 mph N/A   Mostly Cloudy
8:35 PM 33.3 °F 22.1 °F 30.0 °F 88% 29.95 in 10.0 mi NW 18.4 mph 24.2 mph N/A   Mostly Cloudy
9:15 PM 33.1 °F 22.6 °F 28.2 °F 82% 29.96 in 10.0 mi NW 16.1 mph 21.9 mph N/A   Clear
9:35 PM 32.7 °F 23.0 °F 28.4 °F 84% 29.97 in 10.0 mi NW 13.8 mph 20.7 mph N/A   Scattered Clouds
9:55 PM 32.5 °F 21.2 °F 28.9 °F 87% 29.97 in 10.0 mi NW 18.4 mph 21.9 mph N/A   Scattered Clouds
10:15 PM 32.4 °F 22.1 °F 28.8 °F 87% 29.97 in 10.0 mi NW 15.0 mph 24.2 mph N/A   Scattered Clouds
10:35 PM 32.5 °F 21.5 °F 27.9 °F 83% 29.97 in 10.0 mi NW 17.3 mph 25.3 mph N/A   Mostly Cloudy
10:55 PM 32.7 °F 22.1 °F 27.9 °F 82% 29.97 in 10.0 mi NW 16.1 mph 28.8 mph N/A   Mostly Cloudy
11:15 PM 32.7 °F 22.1 °F 28.4 °F 84% 29.97 in 10.0 mi NW 16.1 mph 25.3 mph N/A   Overcast
11:35 PM 32.2 °F 22.3 °F 28.8 °F 87% 29.97 in 10.0 mi NW 13.8 mph 25.3 mph N/A   Overcast
11:55 PM 32.5 °F 22.7 °F 28.0 °F 83% 29.97 in 10.0 mi NW 13.8 mph 23.0 mph N/A   Overcast